This is the latest recevied weather packets stored in our database for station/object CALDNA-WX. If no packets are shown the sender has not sent any weather packets the latest 10 day(s).
| Time | Temp. | Humidity | Pressure | Rain* | Wind** | Luminosity | Snow |
|---|---|---|---|---|---|---|---|
| 1778124638 | 6.11° C | 53% | 985.8 hPa | 0 mm | - | - | - |
| 1778123723 | 6.11° C | 53% | 985.8 hPa | 0 mm | - | - | - |
| 1778122852 | 6.11° C | 53% | 985.8 hPa | 0 mm | - | - | - |
| 1778121922 | 6.11° C | 49% | 986.9 hPa | 0 mm | - | - | - |
| 1778121037 | 6.67° C | 48% | 986.6 hPa | 0 mm | - | - | - |
| 1778120122 | 6.67° C | 48% | 986.6 hPa | 0 mm | - | - | - |
| 1778119244 | 6.67° C | 48% | 986.6 hPa | 0 mm | - | - | - |
| 1778118322 | 6.67° C | 45% | 986.2 hPa | 0 mm | - | - | - |
| 1778117438 | 7.22° C | 45% | 986.2 hPa | 0 mm | - | - | - |
| 1778116522 | 7.78° C | 45% | 986.2 hPa | 0 mm | - | - | - |
| 1778115646 | 7.78° C | 45% | 986.2 hPa | 0 mm | - | - | - |
| 1778114722 | 8.33° C | 37% | 987.1 hPa | 0 mm | - | - | - |
| 1778113839 | 8.33° C | 40% | 987 hPa | 0 mm | - | - | - |
| 1778112921 | 8.89° C | 40% | 987 hPa | 0 mm | - | - | - |
| 1778112052 | 9.44° C | 40% | 987 hPa | 0 mm | - | - | - |
| 1778111122 | 10° C | 37% | 985.7 hPa | 0 mm | - | - | - |
| 1778110244 | 10° C | 37% | 985.9 hPa | 0 mm | - | - | - |
| 1778109322 | 10° C | 37% | 985.9 hPa | 0 mm | - | - | - |
| 1778108448 | 10.56° C | 37% | 985.9 hPa | 0 mm | - | - | - |
| 1778107522 | 10.56° C | 35% | 986.2 hPa | 0 mm | - | - | - |
| 1778106635 | 10.56° C | 35% | 986.5 hPa | 0 mm | - | - | - |
| 1778105722 | 11.11° C | 35% | 986.5 hPa | 0 mm | - | - | - |
| 1778104852 | 11.11° C | 35% | 986.5 hPa | 0 mm | - | - | - |
| 1778103921 | 11.11° C | 34% | 986.6 hPa | 0 mm | - | - | - |
| 1778103041 | 11.67° C | 32% | 986.7 hPa | 0 mm | - | - | - |
* Rain latest hour (hover to see other rain measurements)
** Current wind speed in m/s (hover to see current wind gust speed)